Location: Peebles
(55.6412°N, 3.1714°W)
Time: 02:16:12
(UTC+01:00)

NAPA-1 - Pass Details

Date: 03 July 2022
Orbit: 525 x 528 km, 97.4° (Epoch: 14 August)

Event Time Altitude Azimuth Distance (km) Brightness Sun altitude
Exits shadow 00:18:41 - 222° (SW) 2,671 ? -10.4°
Rises 00:18:43 0° 222° (SW) 2,661 ? -10.4°
Reaches altitude 10° 00:22:34 10° 263° (W) 1,779 ? -10.5°
Maximum altitude 00:23:26 11° 276° (W) 1,741 ? -10.6°
Drops below altitude 10° 00:24:22 10° 290° (WNW) 1,788 ? -10.6°
Sets 00:28:11 0° 329° (NNW) 2,678 ? -10.7°
